Kosmos-1238

operational
NORAD ID: 12138 Int'l Des: 1981-003 Owner: PVO Country: SU
LEOPOLAR

Kosmos-1238について

説明を読み込み中...

リアルタイム位置

3D地球を読み込み中...

次回通過

高度履歴

Altitude vs Time

uPlot chart will show altitude changes over time

軌道要素

1 12138U 81003A 26062.61430572 .00007038 00000-0 47030-3 0 9996
2 12138 82.9582 302.0062 0641545 32.6622 331.2578 14.12351103255002
Epoch: Mar 3, 2026 • Age: 24 hours

現在のステータス

高度 1223.2 km
速度 7.06 km/s
衛星直下点 3.45°N, 41.08°W
打ち上げ日 Jan 16, 1981
運用期間 45.1 years
タイプ other

技術仕様

分類 Payload
質量 570.00 kg
乾燥質量 570.00 kg
総質量 570.00 kg
長さ 2.00 m
直径 2.00 m
スパン 2.00 m
形状 Sphere
製造者 YUZH
バスタイプ Vektor
フェーズステータス In Orbit
所有者/国 PVO/SU

大規模コンステレーション

Loading constellations...